Погода в Шалон-ан-Шампани

Франция     48°57′21″N   4°21′57″E
темп.,
°C
ветер,
м/с
пор.,
м/с
влажн.,
%
обл.,
%
осадки,
мм/ч
давл.,
гПа
погр.,
м
19 мая, ср
ср1923:00+8зсз22905 0.1 101816
02:00+6з11905 0.1 101910
05:00+5ююз2394100 0.0 101829
08:00+8юз3692100 0.1 1019252
11:00+11юз688998 2.8 1019797
14:00+11зюз5885100 4.1 1019806
17:00+13з687886 1.9 10181132
20:00+11з598832 3.3 1019630
20 мая, чт
чт2023:00+8зсз4119511 0.3 1021357
02:00+6з38965 0.3 1022155
05:00+5з22951 0.0 102327
08:00+7зюз23925 0.0 1024149
11:00+12юз347698 0.0 1024927
14:00+15юз5659100 0.1 10231459
17:00+14ююз4668100 0.0 10211279
20:00+13ююз3779100 0.0 1020274
21 мая, пт
пт2123:00+9ю41086100 0.0 1018218
02:00+10ююз51372100 0.0 1016389
05:00+9ю51386100 0.6 1013329
08:00+10юз71492100 0.8 1012773
11:00+11юз71391100 0.3 10111097
14:00+12ююз81283100 0.8 10111136
17:00+14ююз91378100 0.7 10091434
20:00+12юз814801 1.5 1007900
22 мая, сб
сб2223:00+10юз715841 0.1 1008627
02:00+9юз8167528 0.1 10071101
05:00+10юз91663100 0.0 10071651
08:00+9юз91679100 0.1 10081404
11:00+10юз101782100 0.3 10081389
14:00+13зюз101577100 0.8 10081835
17:00+11зюз61187100 1.1 10101145
20:00+11зюз6118977 2.6 1010629
23 мая, вс
вс2323:00+8зюз499655 0.4 1013198
02:00+6зюз34965 0.4 101560
05:00+7юз41096100 0.0 1016330
08:00+8зюз6108859 0.1 1018682
11:00+11юз7117266 0.1 10181341
14:00+14зюз81262100 0.3 10171974
17:00+13юз71276100 0.4 10161285
20:00+13юз71478100 0.6 10151200